North Vernon, Indiana, United States (47265)
Lat: 39.01N, Lon: 85.62W
Wx Zone: INZ072
Local Info
Past Weather Observations for Saturday, August 20, 2016

NOTE: This archive is for the closest National Weather Service station to North Vernon. Information may differ from the station used for current weather conditions.

Click here for Long-term Archive

Time Weather Temperature Dewpoint Humidity Pressure Winds Precip Visibility
23:53
Overcast
73°F / 23°C 66°F / 19°C 78% 29.77 in
(1008 mb)
NW 9.2 mph
(NW 15 kph)
- 10SM
22:53
Clear
72°F / 22°C 68°F / 20°C 88% 29.77 in
(1008 mb)
SW 4.6 mph
(SW 7 kph)
- 10SM
21:53
Partly Cloudy
72°F / 22°C 70°F / 21°C 94% 29.77 in
(1008 mb)
SW 5.8 mph
(SW 9 kph)
- 10SM
20:53
Mostly Cloudy
72°F / 22°C 70°F / 21°C 94% 29.77 in
(1008 mb)
SW 4.6 mph
(SW 7 kph)
- 10SM
19:53
Clear
72°F / 22°C 70°F / 21°C 94% 29.74 in
(1007 mb)
SSE 6.9 mph
(SSE 11 kph)
- 10SM
18:53
Clear
73°F / 23°C 70°F / 21°C 89% 29.71 in
(1006 mb)
SSE 5.8 mph
(SSE 9 kph)
- 10SM
17:53
Partly Cloudy
73°F / 23°C 70°F / 21°C 89% 29.71 in
(1006 mb)
S 6.9 mph
(S 11 kph)
0.00 in
(0.00 mm)
10SM
17:04
Mostly Cloudy
Light Rain
72°F / 22°C 68°F / 20°C 88% 29.71 in
(1006 mb)
SW 11.5 mph
(SW 19 kph)
0.00 in
(0.00 mm)
9SM
17:02
Overcast
Light Rain
72°F / 22°C 68°F / 20°C 88% 29.71 in
(1006 mb)
SW 11.5 mph
(SW 19 kph)
0.00 in
(0.00 mm)
8SM
16:58
Overcast
Light Rain
72°F / 22°C 68°F / 20°C 88% 29.71 in
(1006 mb)
SW 11.5 mph
(SW 19 kph)
0.00 in
(0.00 mm)
3SM
16:53
Overcast
Rain
72°F / 22°C 68°F / 20°C 88% 29.71 in
(1006 mb)
SSW 12.7 mph
(SSW 20 kph)
0.33 in
(8.38 mm)
3/4SM
16:46
Mostly Cloudy
Heavy Rain
73°F / 23°C 70°F / 21°C 89% 29.71 in
(1006 mb)
SSW 17.3 mph
(SSW 28 kph)
0.22 in
(5.59 mm)
3/4SM
16:42
Mostly Cloudy
Heavy Rain
75°F / 24°C 70°F / 21°C 83% 29.71 in
(1006 mb)
W 19.6 mph
(W 32 kph)
0.07 in
(1.78 mm)
2SM
15:53
Partly Cloudy
81°F / 27°C 72°F / 22°C 74% 29.68 in
(1005 mb)
S 15 mph
(S 24 kph)
- 10SM
14:53
Mostly Cloudy
82°F / 28°C 73°F / 23°C 74% 29.68 in
(1005 mb)
SSE 11.5 mph
(SSE 19 kph)
- 10SM
14:41
Partly Cloudy
82°F / 28°C 73°F / 23°C 74% 29.71 in
(1006 mb)
SSE 12.7 mph
(SSE 20 kph)
- 10SM
14:32
Mostly Cloudy
82°F / 28°C 73°F / 23°C 74% 29.71 in
(1006 mb)
SSE 13.8 mph
(SSE 22 kph)
- 10SM
14:20
Mostly Cloudy
81°F / 27°C 73°F / 23°C 79% 29.71 in
(1006 mb)
SSE 11.5 mph
(SSE 19 kph)
- 10SM
14:08
Mostly Cloudy
81°F / 27°C 73°F / 23°C 79% 29.71 in
(1006 mb)
SSE 15 mph
(SSE 24 kph)
- 10SM
14:00
Mostly Cloudy
82°F / 28°C 73°F / 23°C 74% 29.71 in
(1006 mb)
S 16.1 mph
(S 26 kph)
- 10SM
13:53
Mostly Cloudy
81°F / 27°C 73°F / 23°C 79% 29.71 in
(1006 mb)
S 15 mph
(S 24 kph)
- 10SM
12:53
Overcast
79°F / 26°C 73°F / 23°C 84% 29.74 in
(1007 mb)
S 15 mph
(S 24 kph)
0.01 in
(0.25 mm)
10SM
12:48
Overcast
79°F / 26°C 73°F / 23°C 84% 29.74 in
(1007 mb)
S 12.7 mph
(S 20 kph)
0.01 in
(0.25 mm)
10SM
12:32
Overcast
Light Rain
77°F / 25°C 73°F / 23°C 89% 29.74 in
(1007 mb)
S 11.5 mph
(S 19 kph)
0.01 in
(0.25 mm)
5SM
12:23
Overcast
77°F / 25°C 72°F / 22°C 83% 29.74 in
(1007 mb)
S 13.8 mph
(S 22 kph)
0.01 in
(0.25 mm)
9SM
11:53
Overcast
Light Rain
77°F / 25°C 72°F / 22°C 83% 29.77 in
(1008 mb)
S 13.8 mph
(S 22 kph)
0.02 in
(0.51 mm)
6SM
11:51
Overcast
Hazy
77°F / 25°C 72°F / 22°C 83% 29.77 in
(1008 mb)
S 11.5 mph
(S 19 kph)
0.02 in
(0.51 mm)
6SM
11:44
Overcast
Light Rain
75°F / 24°C 72°F / 22°C 89% 29.77 in
(1008 mb)
S 10.4 mph
(S 17 kph)
0.02 in
(0.51 mm)
2 1/2SM
10:53
Overcast
Fog And Mist
75°F / 24°C 72°F / 22°C 89% 29.77 in
(1008 mb)
S 11.5 mph
(S 19 kph)
0.00 in
(0.00 mm)
6SM
09:53
Overcast
73°F / 23°C 72°F / 22°C 94% 29.8 in
(1009 mb)
S 10.4 mph
(S 17 kph)
0.11 in
(2.79 mm)
7SM
09:50
Overcast
73°F / 23°C 72°F / 22°C 94% 29.8 in
(1009 mb)
S 12.7 mph
(S 20 kph)
0.11 in
(2.79 mm)
8SM
09:42
Overcast
Light Rain
73°F / 23°C 70°F / 21°C 89% 29.8 in
(1009 mb)
S 11.5 mph
(S 19 kph)
0.11 in
(2.79 mm)
3SM
09:31
Overcast
Heavy Rain
73°F / 23°C 72°F / 22°C 94% 29.8 in
(1009 mb)
S 9.2 mph
(S 15 kph)
0.07 in
(1.78 mm)
1 3/4SM
08:53
Overcast
Fog And Mist
73°F / 23°C 72°F / 22°C 94% 29.8 in
(1009 mb)
SSE 10.4 mph
(SSE 17 kph)
- 5SM
07:53
Overcast
Fog And Mist
73°F / 23°C 70°F / 21°C 89% 29.83 in
(1010 mb)
S 11.5 mph
(S 19 kph)
- 4SM
07:16
Overcast
Fog And Mist
73°F / 23°C 70°F / 21°C 89% 29.83 in
(1010 mb)
SSE 6.9 mph
(SSE 11 kph)
- 5SM
06:53
Overcast
72°F / 22°C 70°F / 21°C 94% 29.83 in
(1010 mb)
SSE 8.1 mph
(SSE 13 kph)
- 7SM
06:03
Mostly Cloudy
Fog And Mist
72°F / 22°C 68°F / 20°C 88% 29.86 in
(1011 mb)
SE 5.8 mph
(SE 9 kph)
- 4SM
05:53
Partly Cloudy
Fog And Mist
70°F / 21°C 66°F / 19°C 88% 29.86 in
(1011 mb)
SE 5.8 mph
(SE 9 kph)
- 4SM
05:14
Partly Cloudy
Fog And Mist
72°F / 22°C 68°F / 20°C 88% 29.86 in
(1011 mb)
SE 4.6 mph
(SE 7 kph)
- 5SM
04:53
Clear
Fog And Mist
72°F / 22°C 68°F / 20°C 88% 29.86 in
(1011 mb)
SSE 4.6 mph
(SSE 7 kph)
- 6SM
03:53
Clear
Fog And Mist
72°F / 22°C 68°F / 20°C 88% 29.89 in
(1012 mb)
SSE 5.8 mph
(SSE 9 kph)
- 5SM
02:53
Clear
Fog And Mist
72°F / 22°C 68°F / 20°C 88% 29.89 in
(1012 mb)
S 5.8 mph
(S 9 kph)
- 6SM
01:53
Clear
72°F / 22°C 68°F / 20°C 88% 29.92 in
(1013 mb)
S 4.6 mph
(S 7 kph)
- 7SM
00:53
Clear
73°F / 23°C 70°F / 21°C 89% 29.92 in
(1013 mb)
S 6.9 mph
(S 11 kph)
- 10SM
Time Weather Temperature Dewpoint Humidity Pressure Winds Precip Visibility


Weather for websites

WeatherForYou.com, LLC is not responsible for any damages or problems caused by this service. Current weather conditions are obtained from the closest station including government and personal stations which may have varying degrees of accuracy. Weather forecasts are derived from the NOAA NDFD. Like all things, this site belongs to Jesus Christ... He just trusts us to maintain it. If you have any questions or comments email webmaster@weatherforyou.com

Copyright © 2016, WeatherForYou.com LLC. All rights reserved.